This is the latest recevied weather packets stored in our database for station/object KU9TRY. If no packets are shown the sender has not sent any weather packets the latest 10 day(s).
| Time | Temp. | Humidity | Pressure | Rain* | Wind** | Luminosity | Snow |
|---|---|---|---|---|---|---|---|
| 1788048957 | 27.78° C | 67% | 1018.2 hPa | 0 mm | - | 2 W/m² | - |
| 1788048653 | 28.33° C | 65% | 1018.3 hPa | 0 mm | - | 4 W/m² | - |
| 1788048350 | 28.33° C | 64% | 1018.4 hPa | 0 mm | - | 6 W/m² | - |
| 1788048045 | 28.33° C | 63% | 1018.3 hPa | 0 mm | - | 8 W/m² | - |
| 1788047742 | 28.89° C | 63% | 1018.1 hPa | 0 mm | - | 12 W/m² | - |
| 1788047437 | 28.89° C | 63% | 1018.2 hPa | 0 mm | - | 17 W/m² | - |
| 1788047132 | 28.89° C | 62% | 1018 hPa | 0 mm | - | 24 W/m² | - |
| 1788046833 | 28.89° C | 61% | 1018.1 hPa | 0 mm | - | 28 W/m² | - |
| 1788046531 | 28.89° C | 61% | 1018 hPa | 0 mm | - | 26 W/m² | - |
| 1788046227 | 28.89° C | 60% | 1018.2 hPa | 0 mm | - | 25 W/m² | - |
| 1788045924 | 28.89° C | 59% | 1018 hPa | 0 mm | - | 29 W/m² | - |
| 1788045621 | 28.89° C | 59% | 1018 hPa | 0 mm | - | 32 W/m² | - |
| 1788045320 | 28.89° C | 59% | 1018.2 hPa | 0 mm | - | 35 W/m² | - |
| 1788045016 | 28.89° C | 58% | 1017.9 hPa | 0 mm | - | 39 W/m² | - |
| 1788044714 | 28.89° C | 57% | 1018.1 hPa | 0 mm | - | 35 W/m² | - |
| 1788044410 | 29.44° C | 56% | 1018 hPa | 0 mm | - | 32 W/m² | - |
| 1788044105 | 29.44° C | 55% | 1017.8 hPa | 0 mm | - | 31 W/m² | - |
| 1788043801 | 29.44° C | 56% | 1017.9 hPa | 0 mm | - | 35 W/m² | - |
| 1788043501 | 30° C | 55% | 1017.7 hPa | 0 mm | - | 32 W/m² | - |
| 1788043195 | 30.56° C | 53% | 1017.7 hPa | 0 mm | - | 34 W/m² | - |
| 1788042890 | 30.56° C | 52% | 1017.9 hPa | 0 mm | - | 34 W/m² | - |
| 1788042590 | 30.56° C | 52% | 1017.8 hPa | 0 mm | - | 37 W/m² | - |
| 1788042290 | 30.56° C | 53% | 1017.8 hPa | 0 mm | - | 40 W/m² | - |
| 1788041986 | 30.56° C | 54% | 1017.8 hPa | 0 mm | - | 47 W/m² | - |
| 1788041681 | 30.56° C | 52% | 1017.7 hPa | 0 mm | - | 50 W/m² | - |
* Rain latest hour (hover to see other rain measurements)
** Current wind speed in m/s (hover to see current wind gust speed)